Total_Precipitation_Accumulation
1.91 2.13 2.64 3.31 3.71 4.23 4.73 4.73 4.53 4.62 4.75 4.78 4.57 4.73 4.92 5.25 5.56 5.50 5.39 5.29 5.17 5.08 5.25 5.33 5.31 5.15 5.14 5.08 4.97 4.94 4.87 4.54 4.36 4.43 4.04 3.52 3.06 2.82 2.74 2.73 2.82 2.75 2.69
2.09 2.38 2.90 3.25 3.62 3.97 4.23 4.54 4.69 4.74 4.55 4.92 5.23 5.53 5.89 5.96 6.24 6.49 6.52 6.30 6.01 5.81 5.68 5.77 5.47 5.18 5.11 5.03 4.93 4.83 4.69 4.28 4.14 4.23 4.28 3.73 3.27 2.70 2.31 2.37 2.39 2.44 2.56
2.37 2.72 3.05 3.20 3.42 3.77 4.13 4.47 4.84 4.97 4.92 5.42 5.97 6.42 6.83 6.75 6.80 6.75 6.72 6.65 6.22 5.89 5.71 5.51 5.41 5.26 5.06 4.89 4.87 4.79 4.70 4.40 4.16 4.08 4.35 4.14 3.61 3.01 2.64 2.32 2.29 2.37 2.47
2.14 2.48 2.82 3.28 3.25 3.49 3.91 4.27 4.71 5.14 5.48 5.92 6.40 6.91 7.26 7.50 7.31 6.98 6.69 6.32 5.82 5.52 5.18 5.02 5.16 5.11 4.86 4.63 4.29 4.19 4.23 4.24 4.05 3.93 3.74 3.67 3.56 3.39 3.07 2.69 2.60 2.60 2.56
2.03 2.25 2.40 2.74 3.04 3.29 3.66 4.10 4.46 4.90 5.56 6.34 6.91 7.45 7.78 7.80 7.25 6.66 6.12 5.64 5.20 4.86 4.62 4.61 4.78 4.75 4.50 4.25 3.96 3.81 3.63 3.61 3.73 3.77 3.63 3.48 3.34 3.11 3.05 2.90 2.72 2.63 2.52
2.10 2.27 2.41 2.70 2.92 3.04 3.32 3.88 4.43 4.82 5.40 6.18 6.77 7.12 7.30 7.23 6.78 6.15 5.62 5.16 4.68 4.28 3.96 3.82 3.81 3.80 3.65 3.50 3.45 3.44 3.37 3.34 3.42 3.45 3.37 3.29 3.21 3.11 3.14 3.01 2.76 2.71 2.66
2.30 2.30 2.32 2.42 2.68 2.85 3.13 3.60 4.12 4.62 5.02 5.51 6.01 6.06 6.13 5.88 5.49 5.29 4.98 4.45 3.98 3.61 3.28 3.12 3.07 3.12 3.13 3.04 3.06 3.12 3.13 3.08 3.15 3.11 3.06 3.01 2.85 2.86 3.04 3.17 3.01 2.88 2.69
2.14 2.22 2.19 2.39 2.73 3.02 3.30 3.58 3.82 4.16 4.55 4.73 4.89 4.75 4.61 4.53 4.38 4.17 3.79 3.42 3.13 2.94 2.86 2.80 2.65 2.64 2.72 2.72 2.89 2.84 2.75 2.75 2.78 2.69 2.81 2.81 2.67 2.72 2.85 3.04 3.35 3.39 3.05
1.94 2.04 2.17 2.47 2.76 3.04 3.23 3.48 3.65 3.75 3.74 3.78 3.85 3.79 3.70 3.55 3.49 3.39 3.07 2.79 2.64 2.48 2.47 2.45 2.40 2.30 2.28 2.30 2.35 2.33 2.37 2.46 2.40 2.41 2.45 2.42 2.45 2.56 2.65 2.88 3.26 3.55 3.42
2.03 2.06 2.19 2.47 2.55 2.62 2.82 3.08 3.22 3.41 3.38 3.23 3.15 3.21 3.15 2.95 2.78 2.62 2.46 2.29 2.22 2.20 2.20 2.11 2.07 2.08 2.11 2.08 2.04 2.03 2.10 2.16 2.17 2.23 2.22 2.15 2.15 2.32 2.42 2.55 2.74 3.04 3.31
2.18 2.12 2.25 2.37 2.28 2.24 2.27 2.46 2.70 2.99 3.01 2.90 2.78 2.84 2.77 2.63 2.46 2.32 2.18 2.15 2.04 2.01 1.94 1.94 1.95 1.88 1.86 1.93 1.99 1.98 2.03 2.12 2.10 2.02 2.02 2.03 2.14 2.28 2.27 2.33 2.46 2.62 2.87
2.30 2.19 2.19 2.26 2.25 2.12 2.03 2.21 2.33 2.42 2.43 2.43 2.53 2.65 2.58 2.47 2.29 2.17 2.12 2.09 1.93 1.87 1.87 1.88 1.84 1.70 1.66 1.84 1.92 1.90 1.90 2.00 1.96 1.91 1.99 2.00 2.04 2.12 2.16 2.26 2.36 2.53 2.75
2.55 2.46 2.24 2.17 2.20 2.08 2.05 2.12 2.19 2.18 2.12 2.13 2.14 2.21 2.23 2.15 2.08 1.88 1.83 1.84 1.82 1.81 1.78 1.68 1.67 1.63 1.62 1.73 1.76 1.79 1.78 1.80 1.85 1.87 1.93 1.93 2.00 2.02 2.07 2.14 2.19 2.33 2.44
2.53 2.35 2.26 2.19 2.09 2.04 2.07 2.12 2.07 1.95 2.01 2.06 2.14 2.07 2.07 2.11 2.12 2.01 1.88 1.79 1.75 1.72 1.70 1.62 1.58 1.59 1.60 1.52 1.49 1.54 1.65 1.73 1.69 1.62 1.70 1.75 1.81 1.86 1.98 1.95 2.02 2.13 2.31
2.49 2.34 2.26 2.20 2.00 1.89 1.87 1.82 1.79 1.73 1.78 1.89 1.99 2.04 1.96 1.91 1.91 1.94 1.82 1.63 1.55 1.50 1.57 1.51 1.45 1.47 1.42 1.29 1.32 1.37 1.38 1.51 1.52 1.48 1.49 1.51 1.55 1.56 1.58 1.54 1.75 1.98 2.18
2.63 2.46 2.37 2.27 2.08 1.91 1.78 1.72 1.61 1.53 1.60 1.66 1.86 1.96 1.90 1.84 1.73 1.76 1.73 1.68 1.62 1.57 1.53 1.50 1.46 1.38 1.25 1.23 1.17 1.18 1.23 1.33 1.46 1.54 1.50 1.38 1.32 1.26 1.18 1.22 1.36 1.62 1.89
2.55 2.46 2.46 2.33 2.18 2.05 1.89 1.90 1.71 1.51 1.61 1.64 1.66 1.77 1.83 1.86 1.81 1.75 1.73 1.76 1.79 1.77 1.63 1.51 1.47 1.38 1.28 1.22 1.03 0.98 1.06 1.27 1.41 1.52 1.54 1.27 1.10 1.20 1.17 1.22 1.23 1.32 1.46
2.67 2.65 2.55 2.41 2.13 1.92 1.84 1.79 1.73 1.61 1.63 1.61 1.54 1.59 1.64 1.73 1.75 1.75 1.77 1.76 1.74 1.73 1.70 1.57 1.51 1.42 1.19 1.06 0.90 0.92 0.99 1.16 1.17 1.21 1.32 1.36 1.33 1.21 1.25 1.27 1.34 1.38 1.47
2.54 2.55 2.43 2.37 2.26 1.99 1.86 1.74 1.67 1.69 1.61 1.48 1.40 1.36 1.35 1.44 1.48 1.54 1.65 1.76 1.77 1.67 1.55 1.46 1.43 1.36 1.20 1.09 0.98 0.99 1.03 1.12 1.06 0.98 1.02 1.09 1.14 1.14 1.19 1.29 1.48 1.53 1.62
2.04 2.03 1.99 1.99 2.03 1.84 1.75 1.71 1.67 1.66 1.58 1.42 1.28 1.23 1.27 1.38 1.42 1.45 1.60 1.67 1.72 1.56 1.37 1.30 1.34 1.28 1.25 1.11 0.93 0.89 0.89 1.04 1.07 1.10 1.14 1.07 0.94 0.99 1.09 1.31 1.60 1.75 1.77
1.83 1.75 1.71 1.77 1.75 1.64 1.63 1.64 1.60 1.53 1.38 1.27 1.25 1.28 1.31 1.42 1.46 1.55 1.64 1.58 1.44 1.43 1.36 1.30 1.33 1.22 1.08 0.93 0.78 0.76 0.76 0.90 0.99 1.05 1.10 1.10 0.92 0.82 0.88 1.10 1.37 1.57 1.67
1.85 1.76 1.73 1.67 1.61 1.63 1.67 1.65 1.58 1.37 1.29 1.27 1.32 1.38 1.38 1.30 1.29 1.50 1.60 1.54 1.47 1.41 1.37 1.31 1.25 1.11 0.99 0.86 0.74 0.66 0.61 0.66 0.86 1.06 1.07 1.08 1.02 0.94 0.98 1.10 1.27 1.41 1.61
1.84 1.80 1.74 1.65 1.57 1.56 1.61 1.57 1.42 1.21 1.16 1.28 1.42 1.48 1.43 1.46 1.43 1.41 1.47 1.55 1.54 1.39 1.28 1.23 1.16 1.06 0.98 0.87 0.72 0.62 0.58 0.61 0.72 0.92 1.02 1.01 0.96 1.02 1.21 1.33 1.43 1.59 1.81
1.64 1.60 1.55 1.48 1.42 1.36 1.32 1.30 1.22 1.16 1.22 1.33 1.44 1.48 1.51 1.57 1.52 1.42 1.29 1.26 1.25 1.22 1.15 1.10 1.02 1.01 1.00 0.83 0.71 0.71 0.67 0.68 0.73 0.89 1.07 1.14 1.13 1.24 1.39 1.52 1.60 1.71 1.82
1.56 1.51 1.44 1.34 1.22 1.17 1.12 1.06 1.04 1.07 1.20 1.30 1.38 1.39 1.41 1.44 1.48 1.37 1.22 1.17 1.08 1.02 0.98 0.89 0.82 0.87 0.86 0.74 0.72 0.66 0.67 0.74 0.79 0.89 1.06 1.19 1.24 1.32 1.45 1.57 1.62 1.67 1.67
1.44 1.49 1.37 1.28 1.14 1.09 1.09 1.03 0.98 1.02 1.15 1.23 1.22 1.18 1.20 1.25 1.27 1.30 1.21 1.00 0.84 0.73 0.67 0.66 0.63 0.58 0.58 0.57 0.56 0.58 0.64 0.73 0.83 0.95 1.19 1.28 1.28 1.31 1.37 1.48 1.56 1.54 1.52